GFSSGP_sfc_rhum_000.txt.gz
RH
50 33 41 62 71 60 56 51 40 45 39 30 28 32 39 42 56 83 53 35 34 55 58 70 82 79 74 74 73 74 75 77 77 78 76 76 76 75 76 76 76 74 74 76 76 76 75 74 72
52 35 57 64 64 54 53 37 42 39 33 31 26 26 30 37 34 38 40 33 32 37 63 75 80 82 80 77 77 76 78 78 79 78 76 76 76 75 76 74 74 72 72 73 74 76 76 74 74
39 26 58 58 50 52 49 36 35 31 28 26 24 22 27 34 27 30 32 27 28 42 66 78 84 83 80 78 80 80 80 79 80 79 74 74 74 74 74 74 75 76 75 74 79 80 78 76 75
41 52 42 48 43 38 34 30 26 25 23 21 21 30 26 25 29 28 25 22 30 44 65 83 84 82 81 80 78 81 80 79 78 77 76 74 74 74 72 74 77 78 78 78 80 80 78 79 77
43 49 50 39 38 35 25 22 22 24 23 19 18 26 31 27 24 23 25 23 31 38 61 76 80 80 80 80 78 75 75 72 73 74 75 76 70 69 69 75 72 76 78 78 78 75 75 74 78
56 44 41 38 33 26 24 21 18 19 20 18 19 24 32 28 26 24 23 29 32 37 56 68 80 80 78 74 70 70 69 71 70 70 71 74 72 72 73 71 70 72 74 75 76 76 73 73 75
57 53 38 33 38 31 22 17 16 22 19 18 16 26 28 26 32 22 23 29 31 30 34 62 66 74 76 73 72 69 64 63 67 62 60 66 75 65 62 71 68 69 70 70 73 73 73 75 73
58 50 39 36 39 36 21 19 15 23 23 17 17 25 33 28 26 22 22 23 27 29 30 34 41 38 47 58 62 59 66 60 55 58 56 59 55 59 56 65 64 70 70 68 73 72 72 78 78
46 57 42 34 37 34 20 20 16 18 19 20 23 28 27 24 22 22 23 26 28 26 28 30 30 31 28 28 37 43 46 49 47 47 50 46 45 50 49 55 63 61 67 63 70 71 73 81 84
45 47 38 31 28 32 22 20 18 20 25 29 30 25 23 22 24 23 24 27 28 29 26 26 27 29 30 19 26 28 25 32 32 34 36 40 42 47 45 52 55 58 58 59 58 67 74 79 86
32 43 34 28 25 25 22 19 16 21 32 29 33 27 23 23 26 22 23 26 30 29 27 22 24 25 29 29 31 32 33 35 36 35 34 42 40 44 42 49 51 59 52 52 50 52 61 68 88
29 28 25 30 24 26 22 19 22 21 32 22 25 24 24 23 22 23 24 25 28 29 27 21 20 23 27 39 38 37 34 34 36 36 35 44 46 42 39 38 46 50 51 47 49 52 46 50 81
23 24 23 24 26 22 19 24 23 28 31 27 24 24 24 23 24 24 23 23 26 26 25 22 19 22 25 32 37 39 41 37 38 41 39 44 48 47 47 44 45 46 45 41 40 37 36 38 46
20 21 23 23 21 22 22 25 28 26 31 30 27 28 25 25 24 25 24 24 24 24 22 21 20 20 24 31 36 41 41 41 44 45 40 41 46 48 50 49 46 47 46 44 43 41 39 39 41
20 23 24 22 20 22 22 30 32 25 28 27 28 28 27 27 25 25 24 24 23 23 21 22 22 21 25 30 38 41 38 37 41 40 37 38 47 49 47 52 50 48 46 47 50 49 47 48 45
19 20 34 21 21 22 24 33 27 23 28 29 27 26 30 28 26 24 24 24 25 22 21 24 21 23 24 28 32 32 34 38 39 38 42 38 43 44 50 55 54 50 52 55 57 57 59 57 51
25 25 25 27 18 22 25 32 26 26 28 29 27 26 27 30 27 24 24 24 23 22 20 24 24 23 24 27 28 31 32 37 38 38 42 36 44 43 49 56 55 50 56 58 57 56 58 56 54
25 22 18 21 22 20 29 28 31 30 28 29 27 26 26 28 26 24 22 22 22 22 22 21 25 23 24 30 31 36 37 37 39 41 42 34 44 43 51 57 53 53 57 59 58 56 58 62 58
22 20 19 17 19 24 25 25 23 28 32 33 30 26 26 25 26 25 24 21 22 23 22 23 25 25 29 36 39 40 43 38 42 41 36 36 41 42 47 56 52 53 57 56 55 60 59 66 66
19 21 20 18 22 26 28 26 21 19 30 32 30 28 26 26 25 27 27 23 22 22 22 23 24 27 31 38 40 40 37 41 41 46 40 39 37 40 39 42 49 49 56 54 56 60 66 66 65
24 22 20 19 26 24 28 32 25 19 16 25 28 27 25 25 25 27 29 26 26 24 25 23 24 26 33 32 39 42 43 47 48 45 47 44 35 38 39 40 43 44 50 57 57 59 62 65 63
24 20 18 24 28 34 26 38 24 18 22 17 20 28 27 26 26 26 28 27 25 26 26 26 26 24 28 33 38 41 49 51 47 47 45 42 36 35 37 37 40 45 49 48 52 42 55 60 66
25 30 30 28 31 32 28 39 28 20 24 20 18 20 27 27 27 29 29 27 21 25 29 28 27 26 28 29 38 47 48 49 48 45 41 40 39 37 37 38 39 44 50 49 50 53 55 52 54
26 31 38 37 40 51 28 29 28 22 18 19 18 19 25 28 27 30 30 30 25 29 35 36 32 30 32 35 36 41 44 46 46 47 47 48 46 47 42 38 42 45 49 52 54 49 52 54 60
32 36 49 60 64 53 23 24 20 18 18 17 19 23 26 29 31 34 31 33 31 35 40 39 40 41 35 36 35 33 40 42 43 42 46 45 47 49 48 46 45 45 49 51 54 56 51 52 59
34 31 39 43 44 34 29 39 24 16 19 19 21 23 28 32 33 34 31 34 33 33 38 38 38 41 35 32 32 32 32 47 44 41 44 46 48 48 46 45 47 43 40 45 49 53 53 48 61
32 40 28 33 27 35 28 22 17 14 21 22 22 24 34 34 34 33 32 33 34 32 34 36 39 38 34 32 31 26 26 31 42 39 39 46 44 41 42 45 46 44 46 47 48 54 50 68 86
25 30 42 42 43 40 26 24 28 19 20 21 23 28 32 35 33 31 30 32 32 31 32 33 33 34 34 32 27 24 28 28 33 38 40 41 42 45 47 47 47 47 46 47 46 51 64 79 85
36 38 34 34 31 37 31 30 16 16 15 19 20 23 31 36 32 30 28 29 33 32 33 31 30 30 29 28 27 28 30 29 29 32 36 39 43 41 42 41 43 44 47 44 48 58 67 64 68
26 28 29 34 34 30 28 28 17 21 13 14 17 21 29 34 36 32 29 29 30 32 30 29 28 28 29 29 26 28 29 31 33 33 32 34 36 38 40 40 39 38 46 48 54 59 55 68 69

GFSSGP_sfc_rhum_006.txt.gz
RH
67 64 66 66 59 65 73 65 62 59 52 51 54 58 66 65 65 88 67 70 73 77 83 84 81 77 74 74 74 76 77 78 77 76 75 75 75 75 76 76 75 74 74 73 73 74 72 72 74
71 60 64 68 62 70 67 54 58 52 47 47 42 46 50 56 43 46 58 74 75 82 86 86 78 80 76 74 75 75 76 77 76 74 72 72 72 71 72 75 77 77 77 76 75 74 74 71 74
50 53 51 61 60 60 64 50 47 43 40 37 35 37 43 47 39 41 61 79 89 92 87 81 81 81 80 80 76 75 74 74 74 74 70 66 65 63 61 67 75 76 78 80 80 78 74 72 74
49 55 53 51 50 52 47 42 41 36 32 32 38 42 38 36 39 38 69 81 96 97 94 87 81 79 80 73 69 70 70 69 68 69 67 64 62 63 59 59 61 63 68 74 78 79 77 75 74
60 60 53 52 50 44 41 36 38 40 33 33 34 43 42 36 34 40 67 80 94 96 91 82 77 78 74 70 65 63 66 63 62 64 68 67 60 65 64 62 63 64 64 63 64 72 76 78 75
59 55 47 50 49 40 34 29 25 32 32 33 37 42 41 38 35 43 51 84 86 95 91 84 80 75 71 64 62 63 57 53 54 56 58 60 58 58 59 62 66 64 66 67 62 64 69 76 79
62 61 50 49 46 41 30 26 23 27 30 28 32 41 44 40 34 44 44 62 78 92 95 90 85 76 72 68 66 57 50 51 51 54 57 57 56 56 57 58 58 58 58 61 65 64 71 67 78
69 61 56 48 42 37 28 22 23 24 29 26 30 41 46 36 33 45 42 44 53 81 89 93 89 78 76 62 56 50 50 50 50 54 54 53 55 53 55 57 56 55 55 57 58 63 72 68 68
54 54 50 43 42 38 27 22 25 27 31 39 40 36 32 31 36 40 42 40 41 41 55 50 42 45 42 38 43 50 49 48 51 52 51 53 58 61 58 54 55 54 54 53 54 55 54 55 62
52 46 37 38 37 31 27 22 22 29 38 44 41 38 35 33 37 39 42 42 40 39 36 39 39 39 39 29 43 43 41 47 46 48 50 52 56 54 51 55 55 55 54 53 53 54 54 53 69
47 49 43 34 36 29 26 26 24 33 40 40 37 35 34 36 37 40 42 41 38 35 33 33 38 41 45 44 45 47 47 50 49 48 49 54 54 60 60 63 65 66 56 54 52 54 53 55 67
40 35 32 35 32 29 29 27 24 33 31 33 33 31 34 34 38 38 42 40 38 31 31 31 36 41 46 54 48 48 46 48 50 49 48 56 63 61 62 63 64 65 65 61 64 64 56 56 59
33 31 29 32 28 28 29 26 25 29 36 35 32 31 33 33 33 37 37 38 37 31 28 31 36 42 44 46 49 46 47 46 50 50 49 56 61 60 62 64 64 62 61 64 65 66 60 59 57
28 30 34 32 28 27 28 30 29 30 38 37 31 32 32 32 32 36 40 37 37 32 28 29 33 42 43 46 47 44 46 45 47 51 50 51 58 57 63 65 64 63 62 63 66 63 66 64 63
30 32 35 32 29 27 26 30 33 33 37 36 36 37 34 34 34 32 34 36 34 32 28 28 33 38 42 43 48 45 44 43 43 48 43 49 55 53 59 64 64 64 60 60 61 60 63 65 60
29 32 40 30 31 27 25 36 29 37 41 40 38 40 37 35 34 35 35 34 34 30 30 29 26 37 39 41 44 42 43 46 44 47 45 45 52 52 56 62 62 62 61 65 61 66 67 67 70
38 37 38 31 32 33 26 31 29 40 42 42 41 39 37 39 38 36 34 34 31 27 29 30 32 37 36 39 40 43 42 45 44 46 44 40 48 49 54 61 61 61 63 64 64 61 70 65 67
35 38 31 31 30 35 38 32 31 40 43 38 41 41 39 37 32 32 34 35 29 28 30 32 32 34 36 40 44 46 46 46 47 45 46 37 46 46 50 55 57 61 63 62 65 62 66 67 71
28 33 30 28 24 34 35 31 28 32 47 44 44 41 40 35 30 35 34 34 32 29 32 35 34 33 40 45 45 45 45 46 48 48 43 38 44 44 45 54 57 59 60 59 63 66 68 68 74
33 33 32 30 25 31 35 35 29 37 43 40 38 39 37 34 36 37 34 33 31 28 28 33 32 35 38 44 47 46 46 47 46 52 50 44 43 44 41 50 54 57 59 56 55 63 70 77 73
35 31 34 29 30 32 36 37 35 32 31 31 33 32 33 33 32 36 34 32 30 28 28 28 32 34 41 42 50 51 52 52 53 53 49 47 45 45 45 45 51 51 58 61 60 63 63 70 73
34 31 28 30 34 40 34 34 34 31 29 33 30 29 34 32 29 33 34 31 29 27 28 28 31 34 39 45 48 47 53 51 54 51 52 48 43 41 43 44 45 49 57 57 61 55 64 73 73
30 32 32 33 38 53 38 46 50 32 28 22 22 23 30 31 30 34 34 29 26 26 28 28 31 35 38 42 48 52 54 56 55 54 50 47 45 46 44 43 46 50 57 59 58 59 63 70 74
29 36 44 55 52 57 36 38 23 26 22 18 15 19 24 34 33 32 32 29 26 26 28 32 33 34 40 43 48 51 50 54 59 56 55 54 55 55 47 43 49 52 57 54 58 57 59 62 73
36 40 53 56 67 50 35 41 24 21 21 20 16 17 29 36 35 37 38 33 30 30 30 33 35 38 39 42 45 48 50 50 51 50 53 53 55 55 48 49 49 55 55 57 58 57 59 63 69
42 35 52 55 56 32 43 45 24 24 15 13 18 21 29 43 35 39 38 36 32 29 30 30 34 35 38 40 44 46 48 56 54 51 56 56 57 52 50 51 53 53 54 59 58 64 66 68 71
35 46 30 35 45 52 47 40 23 27 24 25 25 25 33 42 38 39 38 37 33 30 29 30 34 34 37 38 41 44 42 45 52 51 53 55 53 49 52 52 54 54 57 59 61 68 66 68 78
31 34 48 56 52 52 37 40 29 25 17 18 27 31 32 44 43 42 41 38 34 30 29 30 32 34 37 38 38 37 37 38 42 46 48 51 51 53 52 52 55 60 59 58 60 66 70 78 78
45 41 47 47 51 43 39 31 28 19 18 19 20 26 30 41 42 42 41 39 35 30 31 33 34 35 39 38 39 39 38 34 36 40 42 44 47 47 49 52 55 56 57 56 61 65 69 75 71
27 29 30 42 44 56 34 31 22 22 21 22 18 24 38 44 47 45 44 45 42 35 36 36 36 36 37 40 39 37 37 36 36 37 38 42 43 46 48 50 52 52 54 57 62 67 61 65 70

GFSSGP_sfc_rhum_009.txt.gz
RH
68 69 69 67 59 68 78 69 65 61 60 60 61 61 68 67 67 78 76 75 78 87 88 84 78 75 75 75 75 76 77 76 75 73 73 73 73 73 75 77 77 76 76 74 74 75 72 73 74
73 58 64 70 64 68 68 59 59 56 55 56 41 49 60 67 50 58 88 78 77 82 90 89 77 78 76 75 75 75 74 73 72 70 66 66 61 64 70 72 72 74 78 79 78 76 74 72 74
55 52 51 60 67 67 66 54 55 52 50 42 40 43 49 48 44 45 70 91 90 94 91 82 78 79 78 76 75 71 70 70 68 67 63 61 58 57 59 62 62 69 74 77 80 79 76 74 75
51 53 50 51 54 52 53 47 47 52 40 38 41 44 42 37 40 64 85 93 97 98 95 85 78 77 76 70 71 71 66 62 65 67 64 62 63 62 60 59 59 62 64 64 74 78 80 77 75
63 56 51 55 50 45 45 44 44 43 35 39 40 46 46 40 47 81 91 92 97 98 94 84 76 72 67 66 63 60 57 59 64 69 64 62 67 64 63 62 62 61 61 61 64 68 75 79 79
58 52 50 54 48 38 37 37 37 39 35 37 41 45 45 39 60 79 88 96 96 97 93 85 77 72 67 58 55 54 54 57 60 62 62 60 61 60 61 60 59 59 62 63 64 66 64 70 79
59 51 47 48 49 44 33 27 27 33 36 35 38 48 47 43 46 59 87 95 97 98 97 94 84 73 69 66 53 53 53 55 58 58 58 58 57 60 59 60 59 59 62 61 66 71 68 63 75
72 59 57 50 47 42 32 27 23 28 31 34 32 43 52 39 44 52 71 87 98 97 94 94 90 79 62 64 54 54 53 54 55 55 55 57 58 58 58 60 58 58 58 59 60 60 58 59 67
57 57 55 43 45 39 31 22 25 32 32 38 36 38 38 34 49 49 54 57 76 84 92 81 69 65 48 50 54 54 51 52 53 53 53 58 66 65 65 56 56 55 54 54 56 56 56 58 64
43 49 43 39 41 38 31 23 24 30 40 42 41 39 40 41 47 47 50 56 65 68 52 48 47 41 41 32 47 50 45 51 51 50 55 58 62 62 58 58 55 52 55 54 56 56 56 58 71
55 41 34 38 34 34 30 27 26 34 44 38 36 36 39 44 47 46 47 46 52 49 40 39 44 44 43 43 49 51 53 54 52 49 56 59 58 63 65 68 68 68 60 59 58 58 57 60 67
43 39 39 40 32 31 30 26 24 34 29 32 34 34 35 40 43 44 45 47 44 39 37 38 41 45 50 57 50 50 49 53 54 52 55 61 65 63 67 68 68 67 69 66 67 69 62 63 60
40 34 35 34 31 29 30 28 27 29 31 40 35 37 35 36 39 42 41 43 43 37 36 38 43 47 49 47 50 53 54 52 54 54 55 60 61 64 67 67 67 65 66 68 66 66 64 66 64
33 32 32 34 32 30 29 32 30 26 32 37 38 38 35 35 37 39 46 43 42 35 33 37 40 46 47 50 46 49 50 51 55 56 56 56 60 62 66 66 65 64 66 65 63 65 68 66 69
34 34 34 36 36 30 30 31 35 27 40 38 42 36 35 35 37 34 36 37 38 35 32 34 41 45 46 47 46 50 50 47 54 51 50 56 56 57 63 66 65 67 64 61 61 60 65 62 59
35 35 43 33 34 30 26 33 30 32 42 42 43 41 36 35 35 34 35 36 39 35 31 33 31 43 45 48 50 45 49 48 52 50 49 54 53 53 60 62 62 65 64 66 65 65 65 64 68
39 39 40 34 34 33 30 35 27 32 42 40 42 40 36 35 37 39 39 38 38 34 32 32 40 42 44 46 47 46 46 48 49 51 47 48 53 50 55 60 61 64 65 65 66 62 70 67 66
38 42 36 34 28 42 40 35 28 42 49 40 39 40 38 35 31 32 33 35 38 34 30 30 38 41 42 46 49 52 51 50 50 49 47 42 51 50 52 56 57 63 64 61 65 61 66 69 69
30 36 32 30 26 38 40 34 28 29 51 48 49 45 43 37 30 33 35 38 38 33 32 32 37 41 41 50 51 52 50 50 52 52 46 42 46 48 48 54 57 61 62 59 63 65 68 65 76
41 38 37 32 28 35 35 35 31 28 42 34 38 42 41 39 35 38 37 39 35 31 29 32 32 38 38 43 49 46 48 49 48 54 51 48 45 47 45 49 53 58 60 58 58 63 69 77 77
39 39 37 29 28 36 41 35 38 34 32 34 36 31 32 37 37 36 37 37 35 31 28 30 31 34 38 43 53 55 55 56 57 58 55 49 46 49 46 47 52 54 60 61 60 65 68 71 73
36 36 34 34 41 43 38 35 30 33 32 34 30 30 35 35 33 32 35 36 34 30 27 27 31 32 36 44 49 50 55 53 55 54 53 50 47 44 44 46 48 51 60 60 62 58 67 77 74
41 33 40 42 45 53 43 44 47 36 31 26 22 28 27 28 33 33 32 33 32 30 27 27 31 32 34 41 44 48 55 54 57 56 51 50 48 46 46 45 46 50 58 59 59 59 64 74 73
34 38 46 60 55 56 36 40 26 20 24 22 20 20 22 22 28 32 30 33 34 31 29 30 33 34 38 43 47 48 49 55 59 59 58 57 56 56 50 46 49 51 57 58 57 60 61 61 70
37 42 59 58 70 46 35 42 24 22 24 23 19 16 17 23 32 37 38 38 37 34 33 32 34 38 40 42 45 48 47 52 52 55 58 59 58 59 54 49 51 53 55 58 61 65 62 62 68
42 35 46 59 54 32 47 49 24 24 21 19 18 18 17 22 42 42 39 38 35 33 33 33 34 37 39 40 45 47 48 53 56 53 59 58 59 54 50 50 52 52 55 59 64 69 69 68 73
38 50 32 40 30 48 31 35 27 29 30 27 27 25 25 21 45 43 45 40 35 32 31 32 35 35 38 37 42 45 46 54 55 55 54 58 57 52 53 54 54 55 57 60 64 71 70 70 78
34 36 48 59 55 52 38 42 32 26 22 20 24 25 27 29 42 48 46 42 37 31 30 30 32 34 36 37 39 40 41 45 49 52 55 56 55 54 53 56 55 56 60 60 63 68 70 78 79
42 48 48 46 52 47 46 37 26 22 19 19 20 21 24 26 37 48 49 46 40 34 32 31 33 33 36 36 38 38 41 40 43 46 49 52 52 52 53 51 54 57 58 57 62 64 70 74 75
38 39 53 58 60 59 42 38 25 26 23 23 23 22 24 33 38 49 52 49 44 38 35 33 33 33 35 37 38 40 39 39 39 42 43 46 47 50 49 50 53 54 56 58 62 67 64 72 77

GFSSGP_sfc_rhum_015.txt.gz
RH
66 53 59 60 55 56 62 58 48 49 48 45 50 50 48 51 52 49 68 64 65 69 71 69 77 77 73 68 73 75 76 74 72 70 66 70 72 71 72 73 77 80 78 77 77 76 75 76 75
58 52 64 60 53 51 49 48 54 48 47 50 45 50 53 50 50 73 68 67 64 68 69 68 77 78 76 76 75 72 71 68 66 62 60 61 63 64 66 68 69 70 77 80 79 78 76 76 76
48 41 55 54 55 49 46 46 49 46 50 37 39 36 45 47 42 64 62 66 67 70 70 71 78 79 77 74 70 68 67 65 64 63 62 62 60 60 61 62 64 65 70 74 79 81 79 77 77
49 49 40 44 44 41 42 40 45 54 45 39 35 40 34 33 42 51 65 65 66 70 70 74 79 79 77 71 72 69 68 67 67 64 68 65 62 63 63 64 65 66 66 70 72 77 80 81 80
53 46 45 45 40 35 37 38 49 50 40 33 34 36 39 29 33 57 71 69 66 70 70 65 77 77 73 72 65 67 69 73 68 66 65 65 62 60 61 61 64 67 73 73 69 71 78 81 81
53 44 44 45 41 32 28 36 44 44 31 33 33 37 36 33 56 75 73 69 64 70 71 65 76 74 72 63 62 65 68 69 67 65 64 64 64 62 64 63 62 64 67 68 66 65 73 74 79
47 50 46 44 40 35 30 35 42 41 30 30 30 34 33 32 62 75 71 68 71 70 70 67 58 64 71 62 62 64 65 64 63 62 62 63 63 63 63 62 62 62 62 64 64 63 68 70 72
58 49 42 42 41 38 29 33 26 34 33 30 29 30 31 30 65 75 73 75 76 77 72 66 57 50 47 48 61 61 61 59 60 60 60 62 64 62 61 60 58 60 59 61 62 61 62 66 68
45 48 43 42 43 36 30 29 22 24 26 30 28 27 28 31 65 79 87 83 76 78 76 63 53 48 47 46 50 57 58 58 58 55 59 53 50 53 50 56 57 58 58 58 58 58 56 56 63
44 48 40 37 38 35 30 28 23 24 28 29 28 28 32 43 71 78 84 82 77 76 87 61 50 47 46 47 47 46 42 36 36 34 41 41 44 45 46 53 56 55 55 56 56 54 52 44 37
39 40 34 28 35 33 29 28 23 27 32 26 27 25 34 46 70 72 70 70 72 73 79 66 44 43 45 41 37 33 32 32 34 34 35 36 40 39 37 43 42 42 48 36 37 35 38 43 40
35 36 37 38 32 28 28 25 26 31 25 24 25 28 35 45 59 68 67 69 72 80 77 63 41 36 38 39 34 34 31 31 32 34 34 37 39 37 36 38 41 42 38 36 35 34 35 36 36
36 33 32 35 37 32 27 30 27 28 24 24 28 32 33 36 44 55 59 61 68 74 70 56 41 31 30 35 36 36 34 30 34 35 35 38 42 39 40 37 38 39 37 34 34 33 32 30 27
29 30 31 32 31 30 28 32 29 27 24 23 27 29 30 32 39 42 57 63 68 66 61 48 42 30 30 33 36 35 38 35 38 41 37 39 41 40 40 39 41 40 37 35 33 31 32 33 27
26 30 32 30 30 30 31 31 31 24 24 22 24 24 30 33 33 38 42 52 56 61 58 45 42 34 31 31 35 41 41 39 39 41 38 40 43 39 39 39 37 38 36 33 33 33 29 30 29
27 29 36 27 33 32 26 30 24 23 25 25 24 23 32 31 32 29 35 38 42 51 57 46 39 36 32 33 36 36 37 39 38 39 40 38 42 42 41 40 41 41 41 40 36 36 35 33 32
36 28 34 30 28 31 30 35 28 25 28 27 24 24 27 29 31 29 31 35 35 40 46 46 38 36 35 33 34 34 34 37 36 36 40 42 42 43 41 41 43 43 41 40 35 39 36 35 36
26 32 31 33 24 34 36 36 30 25 27 26 22 22 27 27 26 24 30 31 33 34 35 40 37 34 34 36 33 36 36 36 37 34 38 38 43 43 41 43 44 41 43 43 40 36 38 39 40
29 30 31 27 24 27 26 26 25 23 29 32 28 23 24 24 22 24 28 29 31 34 33 32 36 34 36 39 37 37 38 36 39 38 34 39 42 41 42 41 41 47 41 42 42 42 41 40 42
38 38 36 34 31 31 32 29 24 24 22 21 24 22 21 20 22 25 28 30 30 32 34 30 32 36 35 38 34 30 31 34 34 44 40 40 41 40 37 40 42 45 46 46 43 46 44 43 44
39 36 34 29 29 30 34 27 25 24 23 22 24 23 20 21 20 21 29 31 34 33 35 32 30 34 36 35 40 42 38 42 42 43 43 43 38 41 35 37 38 42 42 44 46 48 49 41 44
41 33 30 33 36 34 29 29 23 17 17 26 26 27 26 26 24 25 27 34 32 35 35 32 31 30 34 38 39 38 38 38 37 38 42 42 36 37 38 36 38 40 41 43 44 44 45 47 39
37 34 38 40 41 42 36 37 17 21 21 18 16 18 25 26 25 23 26 31 30 32 34 34 31 31 34 36 39 40 38 35 38 40 41 39 40 37 39 35 38 39 41 39 41 45 44 45 41
35 35 40 54 47 52 31 33 23 19 19 19 16 18 19 18 20 23 25 30 32 36 39 40 34 33 36 40 38 42 40 39 41 41 40 41 41 41 38 38 39 39 42 43 44 43 45 45 43
34 41 47 44 55 46 34 34 23 19 17 18 18 20 27 30 29 28 25 27 33 43 45 42 40 39 36 39 38 38 41 38 37 39 38 43 42 42 41 39 38 40 46 46 47 46 46 46 47
39 39 43 48 40 35 32 39 24 20 22 32 36 36 35 36 34 35 33 34 32 37 43 42 38 38 35 37 38 35 39 39 35 38 39 38 40 38 39 41 38 37 40 43 46 47 48 47 48
40 44 38 45 44 50 39 31 24 20 32 35 30 25 27 32 35 39 40 36 34 36 38 39 37 36 35 35 34 32 34 37 40 40 38 40 37 38 42 41 41 38 39 41 45 44 44 46 46
52 46 58 53 67 61 44 41 40 34 48 38 31 26 24 34 41 45 44 42 35 37 38 35 32 33 34 34 32 33 33 34 38 39 39 42 39 38 43 44 40 42 40 41 46 47 46 49 48
46 44 38 54 55 77 74 56 51 44 42 29 21 27 30 42 46 47 44 42 39 41 38 35 33 32 33 32 33 34 35 33 34 35 37 40 40 40 41 41 42 42 41 40 41 43 44 49 46
41 60 47 72 66 69 79 74 36 38 24 23 31 28 30 34 42 48 44 45 45 44 40 36 34 33 34 35 33 34 35 36 35 34 33 34 38 41 39 39 40 39 41 39 41 42 36 44 49

GFSSGP_sfc_rhum_021.txt.gz
RH
50 30 31 43 56 43 51 40 26 31 28 23 23 25 25 22 26 48 46 36 27 35 40 56 78 73 75 74 77 71 72 68 69 70 68 69 70 71 71 72 76 77 80 77 77 78 76 75 76
32 35 39 41 42 58 57 26 30 27 24 23 25 26 25 23 24 42 43 37 28 33 37 44 79 75 72 77 75 71 70 65 64 64 64 65 66 67 68 69 72 75 78 79 80 77 77 76 76
34 31 39 39 32 37 43 26 25 24 25 25 25 25 21 22 22 29 30 36 32 32 35 58 80 79 80 75 73 70 67 64 64 63 62 62 64 66 68 69 70 73 76 77 81 80 81 80 76
30 31 25 34 34 31 27 23 24 26 26 24 21 21 21 20 22 23 32 33 33 35 36 71 79 80 76 72 70 69 68 68 65 66 63 64 63 64 65 68 72 75 71 76 77 78 79 82 80
28 29 34 32 28 23 21 22 23 26 25 23 22 22 21 23 25 27 32 32 35 34 36 47 80 78 74 72 70 68 69 68 69 67 62 61 62 63 66 65 67 70 67 68 74 76 78 80 82
27 23 28 27 22 18 20 18 22 24 21 22 22 21 20 20 26 31 31 32 31 33 34 43 77 78 75 72 70 71 70 68 66 65 65 63 64 63 62 63 64 66 66 67 69 74 76 79 86
27 24 24 21 20 19 17 17 20 21 21 21 19 21 17 21 24 30 30 28 29 27 30 31 46 69 76 71 71 73 70 69 67 66 64 63 65 63 63 62 63 64 66 66 66 69 72 76 81
27 23 22 19 19 20 13 20 19 19 18 18 18 20 16 16 22 28 28 27 25 24 26 25 39 59 53 53 72 72 70 68 65 64 64 65 64 62 58 61 60 62 62 63 61 62 67 68 69
25 21 18 17 16 16 12 16 13 16 18 16 17 17 16 15 21 27 29 29 27 26 25 24 28 41 40 41 54 66 67 65 64 62 64 60 36 40 43 60 58 58 58 58 55 52 46 52 57
19 18 14 12 16 16 14 13 14 13 14 12 14 14 16 17 24 29 30 31 28 28 27 24 25 30 34 34 43 40 40 40 36 31 35 22 26 31 39 52 55 54 50 47 43 38 35 37 26
13 17 10 14 11 14 14 12 10 14 19 11 10 11 13 18 25 27 26 25 25 26 29 26 24 26 31 33 34 29 28 26 21 19 19 19 27 33 30 38 34 32 35 22 25 23 22 24 26
18 10 12 13 13 16 14 11 12 13 14 10 10 13 12 17 19 26 24 23 23 24 29 30 26 26 28 32 31 26 24 18 16 18 16 20 22 21 20 21 24 27 22 21 21 20 22 22 17
15 12 12 13 14 15 14 16 14 13 10 8 9 10 15 13 16 16 20 20 20 22 26 29 31 26 26 28 32 29 21 16 16 17 17 19 22 20 21 21 22 23 22 19 20 20 18 17 15
14 16 14 12 12 12 13 14 14 11 9 9 10 10 9 13 14 14 16 19 19 19 22 27 33 28 25 27 30 28 22 18 17 20 20 19 21 20 23 22 23 22 20 20 18 18 19 18 15
16 16 12 10 9 12 14 16 14 10 9 10 8 7 8 8 10 12 12 14 16 16 18 22 30 33 27 26 28 31 27 21 20 22 21 21 22 21 21 22 22 20 20 17 18 16 18 20 18
15 13 14 11 14 13 17 15 8 8 10 9 7 6 6 6 7 7 10 11 12 14 16 19 27 33 31 26 28 27 25 24 23 22 22 21 23 23 23 24 23 23 23 24 23 23 24 22 20
10 13 12 10 10 12 15 18 11 8 8 10 8 7 7 6 5 6 6 8 10 11 13 17 24 30 33 28 24 24 24 26 24 22 23 24 26 25 25 26 26 26 28 26 25 26 24 25 25
11 9 8 9 7 11 11 12 10 8 9 9 8 7 7 7 6 5 5 6 7 9 11 14 19 27 31 30 24 25 25 26 25 23 24 22 29 28 28 30 30 27 31 30 29 25 25 25 24
12 12 12 10 10 12 13 14 13 12 11 12 11 9 8 7 7 7 7 6 6 9 11 14 18 22 30 33 29 28 31 29 29 27 24 26 28 30 33 33 30 34 35 32 32 28 30 31 26
15 16 17 14 12 14 16 17 15 13 13 12 11 9 9 10 10 14 14 15 15 11 12 13 15 19 26 34 32 28 28 29 30 33 30 30 29 30 30 33 34 34 38 36 35 39 34 29 28
17 18 18 18 17 16 17 16 12 8 10 10 14 17 18 18 18 17 18 20 20 20 20 17 16 16 21 32 35 35 30 34 36 35 35 33 29 32 30 31 30 33 36 39 42 41 48 38 32
23 20 22 22 24 22 15 23 16 10 11 17 19 19 17 17 16 18 19 21 20 22 24 25 21 18 19 26 36 41 40 40 36 36 36 34 29 29 31 28 30 31 34 35 39 34 39 42 36
23 22 24 25 25 26 22 22 12 12 15 18 20 19 16 14 15 16 17 20 20 22 25 25 26 24 22 19 34 44 44 38 35 33 36 34 32 30 31 27 29 30 34 31 33 34 33 35 33
22 24 22 22 26 34 17 18 14 13 16 22 20 20 19 15 14 16 17 17 18 23 28 30 27 29 29 31 28 43 46 42 37 36 36 37 34 33 30 29 30 32 34 34 35 35 35 33 31
25 24 24 22 38 30 14 17 14 12 22 22 18 16 14 14 16 19 20 20 21 27 29 27 31 34 28 27 30 30 45 43 39 36 34 37 35 36 34 31 30 32 39 38 39 39 38 34 37
30 27 28 30 20 18 20 24 12 13 17 14 12 10 10 16 21 22 22 24 23 25 27 27 28 31 30 27 29 28 33 42 40 37 33 34 35 34 34 34 31 30 33 36 38 41 41 38 39
22 25 29 40 28 29 20 14 10 9 14 12 10 10 12 16 22 24 23 24 23 24 26 28 29 31 31 27 25 26 26 34 42 39 33 34 32 32 35 34 34 30 32 35 38 38 38 35 35
23 15 22 21 26 21 10 13 14 18 16 13 13 13 13 19 21 23 23 24 24 24 25 26 28 30 32 30 26 26 27 26 33 37 35 35 32 34 37 37 34 34 32 34 38 39 34 35 38
16 17 20 24 29 32 33 24 12 17 16 17 14 12 14 23 24 24 23 21 24 24 26 24 26 30 33 35 31 28 27 26 26 30 34 33 33 32 35 35 35 35 32 31 32 33 33 34 35
16 19 29 39 41 34 43 44 15 16 16 15 13 15 19 24 24 23 22 21 22 26 24 22 23 30 35 37 36 30 27 28 28 27 29 28 31 32 33 33 33 32 31 30 30 32 28 32 36

GFSSGP_sfc_rhum_024.txt.gz
RH
55 38 45 64 83 75 65 71 36 38 33 26 25 25 28 27 33 77 62 43 39 48 60 70 79 76 75 75 73 73 71 71 72 71 70 71 72 72 73 75 77 78 80 77 77 78 76 76 77
48 34 61 71 71 71 63 41 38 34 27 28 27 25 26 29 32 55 57 38 36 43 50 69 78 80 76 78 75 72 69 68 67 66 66 67 69 70 71 72 74 77 77 78 79 78 78 77 77
42 32 64 69 57 56 65 44 34 28 26 28 29 26 29 33 25 49 44 37 34 40 49 71 82 80 79 76 74 72 67 67 65 64 64 65 68 69 69 70 71 73 77 78 80 80 82 79 77
43 54 46 54 48 42 61 31 28 30 28 28 24 25 25 25 28 33 39 37 35 41 64 84 84 83 78 75 73 70 68 68 68 65 66 64 64 65 65 69 68 70 74 76 75 77 77 81 78
45 52 57 50 41 29 26 24 28 29 30 28 26 29 32 29 31 36 39 36 40 42 64 73 82 80 76 74 71 71 71 71 70 63 63 64 64 66 65 65 68 67 68 73 74 74 76 82 82
55 42 44 40 29 20 17 24 22 26 24 23 26 28 34 30 36 38 37 38 36 42 53 66 82 79 77 73 70 71 70 68 67 66 65 66 64 64 63 64 65 66 67 67 70 74 78 77 84
54 52 44 35 31 25 18 18 24 25 23 22 23 35 31 32 36 36 36 35 37 38 44 60 76 78 81 76 73 74 72 69 68 67 65 66 65 65 63 64 64 65 65 66 67 69 73 79 83
51 47 37 35 32 30 19 17 23 20 22 16 22 34 30 29 31 35 34 34 36 36 37 49 64 75 75 76 78 75 72 70 68 66 66 67 66 62 62 62 62 62 62 62 60 62 64 67 69
42 47 38 28 27 29 18 17 14 15 23 18 15 24 22 26 28 36 37 37 35 31 34 32 56 64 65 66 73 76 72 70 67 68 66 68 73 67 69 62 60 59 58 56 53 48 44 53 56
39 46 32 20 20 23 19 17 17 14 18 16 14 15 21 24 29 36 40 41 38 37 35 32 45 57 53 49 70 73 70 76 74 71 77 69 59 63 59 63 57 53 47 44 39 35 36 41 55
30 36 24 18 18 17 20 18 14 16 22 20 19 14 20 25 31 34 35 36 36 34 36 34 32 46 47 47 67 56 55 57 54 49 53 47 57 66 62 75 60 61 49 53 48 40 41 35 40
29 19 16 20 18 19 21 17 18 18 19 15 13 13 15 24 25 32 34 33 31 31 37 35 34 36 43 49 56 48 41 42 39 40 32 44 52 50 52 58 56 48 47 34 37 41 39 34 23
18 17 15 17 19 19 18 21 21 19 16 13 12 13 15 19 20 23 28 28 28 30 36 38 37 36 34 44 46 46 42 36 32 31 31 41 46 41 41 42 45 46 39 37 36 36 31 27 24
18 19 18 15 15 15 16 20 20 17 14 13 13 14 14 14 19 18 21 23 27 28 30 34 36 36 36 39 47 45 46 33 32 39 37 34 42 40 41 41 44 42 39 36 35 33 33 30 30
20 21 19 17 14 18 20 22 19 15 13 14 13 11 12 14 14 17 16 19 20 24 26 30 35 39 39 36 42 48 52 38 39 42 34 34 41 38 41 42 42 40 36 30 30 25 30 33 28
17 19 28 16 18 24 19 30 21 13 13 14 13 11 13 11 9 9 11 16 16 17 22 25 30 39 40 42 43 46 47 44 41 42 41 34 40 40 41 44 45 44 41 40 42 42 42 40 38
23 21 20 17 13 20 20 24 18 14 12 12 13 11 11 11 10 9 11 11 14 15 16 20 33 39 42 42 43 44 41 44 42 41 44 38 40 41 46 49 49 44 48 47 44 46 46 46 46
20 16 14 16 13 13 19 18 15 14 14 17 15 14 14 12 18 21 22 21 20 17 15 16 21 37 40 43 45 46 44 45 42 40 42 38 48 43 46 52 49 48 56 52 50 46 44 46 46
16 16 17 16 15 19 24 22 18 16 18 21 22 20 22 21 20 20 22 22 22 24 26 29 27 23 40 47 48 50 49 46 47 45 37 37 43 46 49 56 52 55 57 56 48 46 44 48 44
21 22 23 20 19 19 23 23 19 17 22 25 25 24 22 20 20 20 22 23 24 25 27 26 29 30 28 49 47 41 40 45 47 51 44 41 40 44 47 55 56 55 61 55 52 50 55 54 51
22 23 25 27 24 22 25 27 27 24 25 21 20 19 18 18 18 19 20 22 23 26 29 27 28 30 31 30 52 54 49 51 56 49 44 44 41 44 41 50 55 53 60 62 59 58 58 58 54
29 23 25 28 32 37 23 40 27 26 27 23 22 22 21 19 18 20 22 23 21 24 32 30 29 30 30 34 37 53 49 47 45 46 47 51 44 42 42 44 48 49 60 60 60 55 63 65 63
27 27 30 32 34 35 33 41 26 25 31 28 27 23 16 18 22 24 24 24 23 25 37 33 30 34 38 39 37 41 49 50 50 46 52 46 44 40 40 40 44 47 51 55 56 53 57 62 61
24 30 28 27 31 48 30 33 28 28 30 22 16 13 12 16 23 25 25 25 26 27 39 38 34 38 42 46 42 38 40 52 53 54 50 51 47 43 40 38 39 43 47 50 53 54 52 57 53
32 36 44 42 59 53 23 28 28 28 18 15 14 14 14 14 22 25 25 28 29 32 32 36 37 41 35 40 46 39 36 40 53 50 47 53 49 47 43 39 39 41 48 53 57 55 53 54 54
31 35 45 48 39 43 27 36 30 18 14 14 15 16 16 16 24 27 29 29 27 28 29 32 36 39 35 35 46 41 34 38 45 51 49 46 48 44 41 40 36 38 50 52 58 63 60 54 58
29 36 28 41 34 41 33 23 22 17 16 18 17 16 18 18 26 28 29 29 28 25 28 28 34 32 31 32 38 42 37 34 42 51 48 48 43 43 43 40 38 38 43 49 56 60 60 54 56
27 23 32 32 38 38 22 22 23 24 22 21 19 17 15 17 23 24 23 24 24 23 25 29 30 28 26 30 36 41 42 35 34 37 50 48 49 43 42 43 40 40 42 45 53 58 56 54 60
25 23 22 26 27 38 49 37 22 22 24 22 19 15 17 25 27 26 25 26 24 24 26 27 24 28 28 33 39 42 42 41 34 34 48 47 45 42 42 42 41 41 41 43 48 51 53 52 56
22 20 22 55 52 50 61 51 21 22 21 20 18 15 20 27 29 28 28 25 25 27 27 26 26 26 29 42 42 42 43 46 39 36 37 42 45 41 40 41 41 39 40 42 44 46 42 49 54

GFSSGP_sfc_rhum_027.txt.gz
RH
63 49 69 71 82 86 73 72 52 42 38 37 31 33 36 39 48 76 69 54 73 78 77 79 80 78 72 74 73 73 74 74 74 73 73 73 73 74 76 79 78 80 78 77 78 76 77 77 76
63 48 67 79 83 81 61 51 44 40 34 32 31 31 33 47 57 64 66 49 60 71 76 81 78 81 77 75 74 72 71 71 70 70 69 70 72 72 73 72 73 75 82 75 80 79 77 77 78
56 46 67 77 78 63 59 47 41 34 29 32 34 33 34 38 57 59 57 44 60 63 71 78 83 82 80 77 74 71 70 68 67 66 66 68 68 68 69 69 74 78 73 75 79 82 81 78 80
50 61 58 61 60 52 48 41 36 36 36 28 31 34 35 34 56 53 45 41 54 58 75 84 84 81 79 77 75 70 69 66 66 67 66 65 66 66 68 69 69 73 74 74 74 72 78 80 82
53 64 69 69 55 39 42 32 31 37 35 32 30 37 39 40 47 47 46 39 63 78 80 81 83 80 79 77 74 70 69 70 66 64 65 65 65 65 66 68 67 68 71 72 72 73 74 81 82
55 56 55 56 42 28 25 28 27 29 28 27 34 36 43 40 50 51 48 47 62 76 79 79 84 83 79 76 73 73 70 72 65 66 66 66 65 64 65 66 66 66 67 69 72 76 76 79 81
53 58 53 46 38 29 23 22 29 29 26 28 30 38 49 48 48 48 47 49 56 66 76 83 84 82 82 79 74 73 72 68 67 66 66 66 65 64 64 65 66 66 66 67 68 70 76 81 73
50 56 48 42 37 33 24 18 20 20 25 23 25 38 46 38 42 46 47 47 52 64 74 91 88 85 87 85 79 75 73 70 68 67 67 67 66 62 64 63 63 64 62 63 63 63 65 68 71
40 42 46 33 29 28 23 21 18 16 22 21 23 31 25 32 42 48 50 48 51 52 73 86 89 89 84 84 80 75 74 71 70 69 69 70 81 76 74 66 61 61 60 58 55 51 50 54 55
42 52 34 25 26 23 22 22 22 17 17 18 18 19 32 36 45 49 51 48 48 46 49 76 85 87 81 68 81 91 80 86 85 86 85 87 84 81 71 66 59 54 50 47 44 39 37 43 62
32 35 30 24 20 27 23 23 24 22 22 19 21 19 25 40 43 46 49 50 48 44 44 60 76 75 74 68 83 82 83 87 85 85 88 83 76 81 80 82 70 68 49 52 46 42 41 36 46
29 25 24 25 23 23 24 24 23 22 20 19 19 16 27 32 38 41 45 45 46 45 41 41 64 67 65 67 79 75 73 73 73 69 73 66 77 76 77 77 71 61 60 60 50 45 40 34 26
25 23 23 24 25 22 20 24 24 22 20 18 16 16 17 21 31 33 39 40 42 41 43 43 44 60 57 70 71 64 62 64 56 54 53 57 64 64 70 68 69 61 53 42 42 39 35 29 26
25 25 25 24 21 21 20 23 27 20 19 17 17 18 18 17 18 23 26 36 40 37 41 42 40 41 51 60 63 58 55 54 49 47 44 50 53 52 55 53 51 50 44 44 40 39 37 33 31
21 27 27 24 22 22 22 25 19 17 16 19 17 17 17 16 15 24 25 24 27 33 35 44 40 40 45 51 54 56 53 44 40 42 39 43 48 46 48 50 51 46 44 39 38 35 37 37 33
24 29 30 20 20 29 19 28 21 18 17 14 14 15 13 30 27 26 26 27 28 26 28 38 36 40 39 50 51 48 51 40 37 44 45 40 46 45 48 50 51 49 46 43 42 40 42 41 40
32 28 24 20 16 27 25 26 21 18 16 16 16 17 26 27 27 26 25 26 28 28 29 32 32 39 45 48 53 50 50 42 38 44 45 40 45 47 50 53 53 52 51 49 46 51 45 46 47
28 24 20 21 16 19 26 27 23 22 20 27 28 28 26 25 26 24 22 23 25 26 27 28 31 31 33 49 59 59 56 51 46 42 42 41 49 48 52 57 56 54 56 54 54 48 52 53 51
25 27 27 26 22 28 29 29 21 26 30 26 24 23 23 24 23 22 22 21 22 27 28 28 31 33 35 35 37 60 55 47 49 44 39 40 44 47 52 61 56 60 54 54 52 52 46 52 49
26 30 33 30 28 26 30 29 31 25 26 24 23 23 23 24 25 24 24 24 24 29 30 28 27 32 41 43 43 44 49 52 42 45 43 42 40 46 49 56 59 58 63 58 57 53 63 55 55
31 34 36 37 35 32 32 35 39 28 24 22 24 23 24 28 29 27 27 27 26 26 36 31 28 30 36 43 50 40 37 48 57 59 54 48 40 46 42 52 56 57 57 56 62 58 56 61 64
36 34 34 37 43 43 33 54 39 34 31 30 25 24 29 32 29 28 28 30 29 29 32 38 33 36 32 38 43 55 57 48 46 54 47 49 44 42 42 47 51 51 58 63 55 56 63 61 59
34 34 38 41 49 59 44 51 50 37 28 20 17 16 21 31 31 32 32 32 33 34 34 35 41 41 43 41 43 51 57 57 47 49 53 50 56 44 44 44 50 51 57 51 61 61 62 68 67
31 38 32 39 49 55 38 45 48 41 25 21 21 19 18 20 31 30 32 32 34 37 37 41 42 44 46 47 47 45 49 50 49 43 60 61 52 53 46 44 45 47 50 58 57 58 61 65 63
34 43 58 44 61 59 33 33 43 22 21 21 22 21 20 20 33 33 35 34 33 36 31 34 37 45 46 43 44 42 50 53 50 46 45 66 60 53 54 45 47 50 50 53 57 58 58 60 57
41 42 60 63 64 62 34 38 40 20 21 22 21 21 20 21 32 34 34 34 35 32 29 34 30 45 39 39 40 41 56 58 52 49 44 42 58 51 46 46 42 43 47 52 54 56 56 57 59
37 39 32 44 50 57 51 35 27 24 26 24 23 22 22 21 30 32 31 31 34 32 31 34 41 36 30 36 37 42 55 56 52 50 46 44 45 52 48 47 44 42 48 49 51 54 54 52 56
32 29 40 42 43 49 38 33 43 31 31 26 23 21 22 26 34 33 33 32 31 27 27 36 34 34 33 33 32 44 56 55 53 52 52 45 40 56 49 47 45 43 45 48 53 53 52 52 62
29 30 30 34 38 49 59 50 32 36 30 26 22 21 22 31 35 35 33 33 33 32 35 35 35 36 34 31 38 55 54 56 56 55 54 46 43 47 49 46 46 45 45 48 50 52 54 49 55
26 27 28 60 52 63 85 58 32 30 26 24 23 21 25 35 36 36 34 32 35 35 36 35 35 34 36 43 45 45 45 53 64 66 55 52 49 38 47 46 46 44 42 46 47 52 48 49 54

GFSSGP_sfc_rhum_030.txt.gz
RH
65 56 72 75 74 79 74 62 59 48 44 40 33 32 39 43 45 51 76 74 82 87 82 81 81 76 75 75 75 75 75 76 76 76 75 74 74 76 75 79 79 77 78 77 76 78 76 76 75
69 53 71 81 78 81 66 61 52 44 34 35 32 34 40 47 64 71 71 71 77 80 83 83 80 78 75 75 75 75 74 74 73 73 73 74 73 73 74 76 73 74 76 77 79 77 78 78 75
52 52 67 78 83 70 58 47 47 40 33 34 36 35 34 40 59 65 64 74 74 78 82 81 83 81 79 75 75 74 73 73 70 68 68 68 69 70 71 74 72 70 69 74 82 81 78 80 78
51 63 63 63 66 57 54 41 42 42 36 33 35 38 39 42 58 57 56 67 75 78 84 84 85 81 81 78 75 73 71 68 67 67 67 66 67 67 68 71 73 69 69 69 71 76 81 82 79
61 67 70 68 55 43 37 37 38 39 38 36 36 42 42 44 51 55 50 62 70 81 83 84 83 80 79 78 75 72 70 68 68 67 66 66 65 67 69 68 70 72 72 70 70 70 72 82 80
52 55 56 58 46 36 28 23 31 32 33 34 36 41 44 50 59 53 45 68 66 82 82 82 83 83 81 78 76 73 72 69 66 66 65 66 65 65 66 67 67 68 71 72 72 73 75 80 81
53 58 54 52 44 32 30 21 29 27 26 28 33 41 48 56 58 55 54 78 76 78 82 83 85 85 84 82 77 74 72 71 66 66 67 67 65 65 66 66 66 66 66 68 72 77 74 73 79
62 56 54 46 40 29 26 20 25 19 22 22 27 40 55 42 50 57 57 74 84 86 85 92 91 87 87 84 81 76 73 71 68 67 68 68 67 64 66 66 65 64 65 66 65 69 76 79 77
44 36 45 34 32 25 24 21 21 19 19 17 23 27 29 38 52 60 61 65 79 80 92 96 95 94 92 89 80 78 74 71 70 71 70 71 85 80 74 71 63 62 62 61 59 58 58 59 61
44 45 27 27 28 24 24 28 23 20 22 21 17 18 34 44 59 58 60 60 75 83 91 96 95 96 94 77 87 91 79 86 87 87 88 92 89 89 75 70 60 58 57 54 51 46 42 47 63
39 33 31 27 24 29 25 23 26 25 24 21 20 21 18 47 54 57 58 56 57 66 82 90 95 94 90 80 89 98 96 94 91 92 92 93 84 90 89 89 78 71 51 56 48 48 44 47 53
33 28 28 28 29 27 26 22 24 23 20 20 20 21 21 37 44 51 55 53 53 53 59 79 88 90 88 80 90 90 88 89 90 89 90 93 91 94 90 89 82 72 71 60 57 49 43 36 36
28 26 24 25 28 27 26 23 27 23 20 21 21 20 22 25 31 34 31 36 48 52 47 58 83 85 82 80 88 89 86 84 81 81 83 82 84 89 82 78 75 67 62 61 52 46 42 32 29
28 29 29 27 26 23 23 26 24 20 21 17 21 25 35 34 34 31 32 35 35 40 40 49 71 75 74 75 84 81 80 80 77 74 69 67 69 73 76 70 70 69 60 50 47 43 39 35 33
25 25 24 23 24 26 27 26 25 20 21 16 17 36 32 31 30 31 31 32 33 34 35 34 47 64 71 71 78 74 73 72 69 65 60 57 58 59 60 66 62 59 53 45 45 42 42 40 36
26 28 30 20 18 25 21 31 21 20 21 20 35 37 31 29 27 31 28 29 29 29 32 31 30 37 55 64 75 71 67 65 62 56 54 49 52 50 52 56 56 55 52 51 48 45 46 44 41
31 30 29 20 18 25 29 28 26 22 22 32 34 31 27 28 27 27 25 30 32 31 29 31 33 33 34 58 63 66 65 61 56 49 46 44 48 48 47 50 50 55 55 52 48 50 47 49 50
32 28 22 24 19 27 29 36 31 32 31 30 32 33 29 29 30 29 28 28 31 35 31 28 32 40 34 34 38 50 62 58 50 45 41 38 45 47 45 53 53 55 59 57 56 50 56 52 50
29 31 33 31 28 31 35 39 32 26 26 28 30 31 32 32 30 30 29 29 30 33 38 34 35 42 42 41 41 43 48 54 52 48 45 42 42 47 46 54 54 59 53 51 53 53 50 55 58
35 37 37 34 32 32 33 40 32 27 30 29 31 34 35 34 33 32 33 32 33 34 39 38 38 43 47 56 59 57 53 60 55 56 51 45 42 48 47 50 51 54 60 57 56 55 62 56 58
35 36 41 38 39 36 38 49 37 31 24 21 27 32 35 35 35 35 37 37 37 38 39 36 42 42 45 49 58 49 51 52 59 53 56 53 49 43 41 48 50 52 52 52 52 56 58 59 65
40 38 39 40 46 47 37 54 49 38 24 20 20 26 37 36 34 35 35 35 39 39 36 39 40 42 40 47 55 62 65 64 60 60 65 56 55 49 46 43 45 47 52 53 52 52 59 62 62
36 39 40 44 51 62 52 58 65 31 26 24 22 21 22 37 37 36 35 34 35 38 36 39 41 38 48 47 50 58 59 68 65 60 56 58 62 58 43 42 47 46 49 48 49 56 63 60 65
31 34 37 54 58 61 45 54 58 34 26 27 25 22 21 22 36 38 36 33 36 37 34 37 39 42 48 47 43 44 46 58 68 66 64 62 58 71 60 48 45 46 49 47 55 50 52 54 64
35 48 49 41 58 48 41 40 49 25 25 26 24 22 22 22 34 35 34 34 36 35 34 32 40 43 45 42 42 42 45 59 68 68 70 64 57 54 66 58 50 47 47 50 52 54 53 54 57
43 46 50 35 53 58 44 40 32 25 24 26 25 23 22 22 30 34 32 34 35 34 34 37 40 41 39 38 40 41 44 66 70 68 66 67 64 56 50 53 55 45 44 46 49 58 55 54 55
34 42 43 44 54 57 52 35 26 28 30 31 28 26 28 25 30 34 34 34 35 36 34 36 38 37 38 38 36 40 46 63 64 61 61 71 67 55 46 48 54 50 44 45 49 52 57 56 55
30 33 46 46 38 43 41 43 43 34 37 33 27 29 28 26 33 36 37 37 37 37 36 39 38 39 39 40 40 35 47 54 55 57 66 68 68 60 54 51 50 56 48 45 49 51 56 57 60
30 30 34 37 44 44 54 42 36 36 38 31 28 25 26 32 40 40 38 36 35 37 38 38 38 37 36 40 42 48 46 45 52 53 52 71 66 65 58 51 46 55 52 47 47 49 54 57 56
28 31 35 54 42 65 82 65 32 38 29 26 28 27 29 37 40 41 40 41 40 40 40 41 41 42 43 44 48 52 41 44 53 45 54 68 68 66 64 58 51 50 51 46 46 49 49 56 55

GFSSGP_sfc_rhum_036.txt.gz
RH
69 62 75 76 67 74 74 67 68 56 46 44 40 39 42 44 37 41 76 87 89 88 90 78 75 74 73 72 72 72 74 75 75 73 70 73 72 78 76 67 69 77 76 78 77 74 72 73 74
67 57 69 76 73 80 69 61 60 51 45 42 40 42 41 43 67 78 87 87 85 89 90 88 76 78 73 71 72 72 75 77 77 73 72 73 71 69 66 74 75 72 77 77 80 78 74 76 77
52 54 62 74 83 65 64 56 52 42 42 42 44 41 41 43 66 67 77 88 87 91 91 87 73 76 76 70 70 74 75 76 76 75 73 69 69 69 71 72 62 64 76 79 79 81 77 79 78
54 60 58 59 67 58 60 41 48 43 40 40 42 43 42 44 62 66 82 87 94 96 96 86 78 78 74 70 70 75 75 74 73 69 66 64 66 68 71 70 60 62 67 70 71 81 80 80 79
62 58 48 51 49 46 40 32 31 34 34 36 42 42 44 49 65 80 88 85 94 99 97 89 78 78 75 75 72 75 74 73 67 65 63 63 63 65 65 70 69 68 66 64 66 71 80 79 80
53 50 40 42 43 38 35 28 34 24 25 26 36 46 46 53 68 86 87 92 88 96 94 92 81 80 79 72 73 76 73 69 68 67 65 63 64 65 65 65 68 68 68 70 71 68 72 80 78
53 48 46 60 48 32 31 24 26 23 18 30 29 43 43 54 75 79 90 92 90 94 95 96 92 86 85 80 72 76 73 69 70 68 67 65 63 63 64 64 64 65 67 68 71 66 73 81 81
64 51 56 60 41 28 27 21 28 23 21 19 25 38 45 34 74 80 90 91 94 95 96 98 97 96 95 90 82 78 76 71 70 69 68 68 65 64 64 64 63 62 62 63 66 70 79 80 80
42 32 35 37 39 27 25 24 22 25 24 23 21 20 25 35 73 82 92 94 96 93 97 98 98 97 97 96 90 81 78 76 72 73 72 73 91 87 84 72 65 61 60 61 60 63 71 69 67
37 27 23 28 31 30 28 29 26 24 24 19 21 31 38 45 62 67 69 81 93 96 96 98 97 96 98 89 95 95 90 92 91 90 90 95 92 91 82 76 63 61 58 58 56 53 53 60 66
47 30 31 32 32 34 30 26 26 27 30 40 40 43 38 38 38 40 41 44 48 64 91 94 87 88 96 96 98 99 98 98 97 94 94 95 91 95 96 96 91 85 66 69 61 57 53 53 61
39 35 36 35 34 33 30 26 29 41 48 41 40 42 38 38 38 37 36 38 41 43 40 47 88 91 94 95 98 98 99 98 98 97 94 97 98 96 97 98 95 89 79 68 64 58 48 44 43
35 31 30 30 31 33 33 28 31 38 39 34 31 32 36 38 39 37 35 34 36 38 40 38 43 96 91 94 98 99 99 98 97 97 95 97 97 96 96 96 94 90 78 71 62 56 47 45 34
37 34 30 27 24 28 29 29 31 36 36 32 32 35 35 36 38 37 39 38 40 38 39 37 38 80 95 98 97 99 97 96 97 98 97 94 97 96 96 94 88 84 70 67 63 55 47 45 38
36 26 26 24 22 30 32 32 42 40 36 36 39 40 35 37 35 38 39 41 47 40 40 40 37 41 42 74 92 95 98 95 98 98 93 92 92 93 89 92 86 75 69 58 56 52 49 46 40
32 30 29 24 28 28 25 42 38 37 35 39 38 41 38 37 37 40 37 38 43 45 44 42 40 42 45 50 54 80 88 89 95 96 91 86 81 78 79 84 75 69 69 65 58 55 53 50 46
33 38 30 23 32 34 34 48 35 33 33 37 41 42 38 39 37 39 37 39 39 44 46 43 47 46 47 49 55 57 62 69 80 85 83 87 88 85 84 78 77 66 61 63 58 56 51 52 52
41 44 31 28 30 39 40 41 37 34 35 38 41 42 40 38 38 38 36 37 37 41 42 44 46 51 50 49 54 56 59 62 63 65 62 60 76 83 80 76 74 72 69 66 60 50 55 51 51
31 35 37 35 35 40 43 40 38 37 38 38 41 41 39 36 35 36 37 36 36 37 42 44 45 52 56 58 61 59 63 66 63 63 58 57 56 57 80 82 69 69 64 59 53 54 49 56 56
38 43 41 38 39 38 43 42 38 37 40 40 41 43 41 38 35 35 37 37 36 34 38 42 44 49 52 58 63 64 65 63 72 66 58 57 54 55 51 64 77 70 69 62 59 50 55 56 60
40 41 43 41 45 40 40 48 36 28 28 31 35 39 39 40 38 36 38 39 38 35 37 38 43 45 49 51 57 58 57 57 64 67 68 65 60 59 59 53 55 64 70 63 61 57 55 46 61
45 39 43 46 52 46 45 50 49 32 26 26 24 25 29 38 38 36 36 36 39 36 36 37 40 41 42 46 50 50 57 57 65 72 76 69 63 62 64 67 66 64 65 67 60 55 52 57 54
40 42 47 52 55 65 59 64 63 31 30 28 26 26 27 25 28 37 37 36 36 38 39 38 41 41 41 45 46 52 51 56 63 69 73 72 67 65 64 69 72 71 71 67 54 60 55 54 47
36 39 45 63 62 53 51 58 55 37 29 29 30 27 27 26 25 26 36 36 36 38 40 42 41 44 42 44 44 46 49 50 56 62 76 76 74 71 67 66 72 73 76 74 68 60 61 50 50
38 32 30 26 46 43 51 56 48 37 28 28 30 30 27 29 29 29 36 38 38 39 39 40 40 45 43 42 43 44 46 50 53 63 76 76 74 72 68 69 73 73 73 76 77 73 65 59 55
48 44 38 22 28 39 52 49 37 27 26 27 30 34 31 32 32 33 36 40 41 39 40 41 42 44 44 44 45 47 49 58 58 65 69 73 75 71 69 72 74 67 67 70 77 80 72 63 59
41 41 47 44 57 51 46 43 35 32 31 32 37 34 36 35 34 33 38 41 42 42 42 42 42 42 42 42 43 45 47 51 57 57 64 68 68 62 68 75 76 70 70 70 73 80 75 68 63
33 33 40 47 33 34 36 37 37 37 36 36 38 37 36 36 38 39 42 43 43 42 42 45 43 43 40 42 44 42 47 50 54 59 61 64 65 66 63 72 78 75 73 71 74 82 80 74 68
27 38 43 44 46 42 48 35 33 30 33 39 37 36 36 39 45 48 46 45 44 45 45 39 39 42 42 44 43 45 45 48 51 54 54 58 61 65 67 70 75 76 75 74 79 80 80 77 70
35 35 35 54 40 63 77 60 39 36 37 35 37 37 38 45 52 52 46 41 44 42 40 39 38 42 42 43 43 40 42 44 51 53 52 56 58 58 61 74 76 75 74 76 80 81 77 79 73

GFSSGP_sfc_rhum_042.txt.gz
RH
47 34 39 47 38 33 42 43 35 29 25 23 21 20 21 19 21 29 51 43 42 44 44 57 76 70 71 66 76 68 73 71 67 63 63 71 73 68 67 68 75 74 76 78 70 71 70 71 69
34 40 44 38 34 36 39 31 35 31 26 23 21 20 20 26 24 32 35 46 41 41 42 46 75 73 69 68 69 72 66 67 72 71 63 72 70 68 66 69 63 74 74 77 75 73 74 76 74
34 34 32 26 27 34 35 30 32 29 23 22 19 20 21 32 30 27 38 43 39 41 41 50 76 68 70 67 69 68 71 74 75 71 73 67 66 63 69 68 59 73 77 76 76 78 75 77 75
34 33 24 22 28 32 28 22 21 23 17 20 20 20 25 30 38 36 39 39 38 41 42 67 76 70 70 67 65 66 73 73 74 71 65 64 66 71 72 63 60 66 71 71 74 76 77 77 75
29 23 20 24 25 22 15 16 12 12 11 12 17 21 29 22 30 42 42 39 37 40 40 49 73 73 72 70 68 67 74 74 73 66 63 63 64 65 67 63 63 64 66 64 72 76 74 77 76
28 22 17 19 19 19 12 12 10 9 9 9 12 17 24 20 35 46 44 40 37 40 43 42 71 76 76 70 70 67 73 74 69 66 64 64 65 66 64 66 69 69 63 63 71 74 77 73 75
26 24 25 24 21 18 14 11 11 12 10 11 12 14 19 18 41 49 44 41 42 40 44 42 43 61 81 76 72 68 72 73 68 66 65 63 63 65 64 64 64 66 66 64 68 68 78 79 80
30 24 24 25 19 20 15 12 13 13 13 11 16 18 19 26 39 49 46 44 44 46 44 40 43 43 58 59 79 73 72 74 70 69 68 67 64 64 64 64 62 62 62 62 64 66 73 76 72
23 22 21 19 16 20 15 13 14 13 12 19 22 25 27 30 33 42 46 45 44 46 43 43 43 43 47 47 53 74 76 78 73 71 72 65 46 44 48 61 65 62 62 62 61 63 67 68 70
19 21 16 16 18 20 18 16 19 15 18 23 22 22 26 29 30 32 33 34 32 32 34 37 43 44 44 48 47 48 49 48 54 45 46 44 42 40 48 60 68 62 62 60 60 58 59 64 42
22 20 19 20 21 19 17 20 24 20 29 28 28 25 25 26 28 27 26 26 27 27 28 27 29 39 57 59 63 62 58 48 44 45 45 44 45 44 43 38 42 42 57 40 46 44 33 30 34
18 21 19 22 20 19 19 21 26 28 31 25 25 23 22 22 23 22 22 22 23 25 28 26 30 34 37 68 83 82 82 69 57 50 49 47 49 46 42 39 35 40 35 33 33 29 30 31 29
16 18 18 18 22 21 22 27 27 28 24 23 23 23 22 21 21 19 18 18 18 21 24 24 25 30 41 53 88 89 89 94 77 72 57 55 58 51 47 42 38 36 34 31 25 26 24 23 20
19 18 16 18 20 22 24 28 26 27 22 23 21 21 21 21 18 17 15 16 16 17 18 18 21 24 29 40 64 87 94 96 97 95 85 70 65 58 66 52 46 40 34 32 25 21 21 19 18
18 14 16 17 19 23 21 27 32 24 22 21 19 18 18 17 15 15 14 14 13 14 14 15 15 15 20 26 31 36 43 64 77 92 90 90 94 92 84 72 57 46 37 33 28 22 21 21 19
15 15 17 18 19 22 22 20 30 23 20 21 17 16 18 15 13 13 13 12 13 12 12 13 12 11 12 14 18 21 24 28 31 32 37 51 70 83 90 92 89 83 64 47 37 32 28 25 21
16 10 15 18 21 20 21 25 29 23 22 21 17 16 15 14 13 14 13 12 12 13 13 14 14 13 13 13 13 15 16 18 20 21 25 28 36 36 43 64 85 88 83 64 49 39 34 29 26
11 13 16 18 21 21 23 26 27 23 22 21 17 16 15 13 15 16 14 14 12 12 12 14 14 15 14 15 14 15 15 15 17 19 20 21 25 27 32 37 45 60 83 88 70 51 38 35 29
18 20 20 20 24 25 26 25 27 24 22 22 19 15 14 13 16 16 16 14 13 12 12 13 16 16 16 18 18 18 19 16 17 18 19 20 25 27 30 29 33 40 54 71 82 77 53 46 34
21 21 19 23 27 24 24 26 25 24 22 21 18 16 15 15 13 14 15 16 16 15 15 14 15 17 18 21 21 19 16 18 21 23 21 22 23 26 27 28 30 32 38 47 63 83 79 62 51
22 21 20 21 28 26 27 26 28 23 20 19 17 16 16 17 15 14 15 16 18 17 19 18 17 17 18 21 23 22 20 20 21 21 22 23 23 25 28 28 27 28 32 38 43 54 81 90 85
23 23 26 28 27 22 23 13 28 23 24 20 18 17 15 16 15 14 15 17 17 19 22 20 18 17 18 20 22 24 26 26 23 24 23 25 22 23 27 26 26 28 29 31 33 35 46 68 78
27 28 27 29 25 26 28 25 19 24 24 20 16 15 15 14 14 15 15 17 15 21 22 23 21 18 19 18 23 26 29 26 24 23 25 24 24 23 23 22 22 24 26 27 31 34 34 41 52
24 24 28 31 28 27 20 24 13 22 19 18 14 15 15 15 15 16 15 17 17 22 27 26 22 20 21 22 20 25 26 24 26 26 26 25 24 24 25 25 24 24 27 29 31 34 36 36 37
22 21 18 23 29 20 27 30 16 22 18 15 15 15 16 16 16 17 17 19 20 24 24 22 21 21 18 18 20 21 26 25 26 26 26 27 26 26 26 26 26 26 27 31 35 38 40 36 38
24 22 16 18 14 14 32 27 16 18 18 14 15 16 18 18 18 19 19 22 22 22 21 20 20 20 20 20 21 20 22 24 25 26 27 27 27 27 28 28 28 26 26 26 30 35 41 40 37
23 21 28 19 23 18 14 15 16 18 18 17 17 19 22 21 20 20 20 21 22 20 19 20 20 20 20 19 19 18 19 22 27 27 26 29 27 28 29 29 30 28 28 27 29 32 38 38 35
22 22 23 20 18 18 12 16 12 22 20 19 19 20 21 22 21 20 20 22 20 19 20 20 18 19 20 20 20 21 22 23 25 26 27 30 29 31 32 33 31 31 29 27 29 33 39 38 36
24 21 22 23 20 17 17 13 11 13 14 17 16 17 19 21 22 21 20 20 20 21 20 19 19 20 21 22 25 26 27 26 26 28 29 30 30 28 30 32 34 31 30 28 28 29 33 34 35
20 16 17 20 21 22 32 26 14 15 16 17 15 16 19 23 25 24 22 21 20 21 20 19 19 22 26 28 28 29 30 30 30 30 29 29 30 30 32 31 33 30 29 29 29 32 29 31 34

GFSSGP_sfc_rhum_045.txt.gz
RH
49 28 31 44 50 44 36 35 22 25 21 16 16 17 20 20 22 36 42 32 31 34 42 57 74 68 70 70 72 67 71 70 64 64 66 70 72 67 73 70 72 73 77 75 71 70 71 66 73
30 30 40 37 54 57 35 24 29 25 20 16 14 15 20 30 21 31 32 35 31 30 37 46 75 72 68 73 69 67 60 64 68 60 65 69 68 66 68 61 75 76 75 77 77 75 74 74 75
27 28 33 24 25 37 36 27 25 21 15 14 16 14 25 37 28 26 31 30 29 30 33 58 76 73 69 66 64 60 61 69 71 61 71 64 64 64 71 66 67 73 74 76 76 79 76 75 74
27 31 22 23 30 26 23 20 17 20 13 13 14 23 25 27 34 28 28 27 28 30 33 72 75 71 66 61 60 62 72 73 74 71 64 63 66 68 70 62 65 65 71 69 75 77 77 76 73
24 21 20 24 25 18 17 16 12 12 12 10 11 20 24 29 32 30 30 27 28 30 32 45 71 67 66 67 65 65 69 74 72 66 62 62 64 64 68 66 65 66 65 66 72 76 76 74 75
27 19 16 19 20 15 12 10 10 10 8 8 8 14 22 24 41 37 31 29 27 31 32 41 70 72 72 69 66 66 73 73 71 65 63 62 63 65 63 65 70 70 68 66 71 74 81 74 74
27 24 21 17 19 18 12 9 10 9 9 12 11 12 17 19 33 39 32 30 31 31 33 32 38 61 80 76 72 66 74 74 70 67 66 64 64 64 65 64 62 64 66 66 68 69 80 78 80
25 23 22 20 17 20 12 10 10 11 14 11 14 18 21 23 28 38 35 33 32 35 34 28 30 31 46 52 80 74 70 76 72 71 70 69 67 65 67 66 63 61 63 62 62 68 71 75 72
19 26 23 19 15 18 12 11 12 10 14 16 18 21 24 25 26 34 35 35 35 36 33 32 30 28 37 46 56 77 77 78 76 73 76 70 54 51 50 63 65 61 62 62 62 62 66 68 74
19 25 19 14 14 16 14 13 14 13 15 18 18 19 22 25 26 29 30 30 28 28 27 26 27 33 38 44 47 68 53 56 54 46 47 46 38 39 41 55 68 64 64 62 62 61 61 65 44
17 21 17 18 17 15 13 16 18 16 25 24 23 21 21 22 25 24 24 25 26 26 26 24 25 28 32 45 71 77 65 78 77 61 44 39 39 40 41 41 48 52 63 46 54 50 42 29 30
18 17 16 19 16 15 15 17 22 24 27 20 21 19 18 19 19 19 19 19 20 21 23 21 22 26 33 34 66 86 95 84 86 81 76 68 50 43 41 38 37 37 34 33 30 28 30 31 28
13 15 14 16 17 18 18 20 23 24 21 19 19 19 18 17 17 15 14 14 15 16 17 17 18 21 28 38 55 82 93 94 93 94 90 92 88 72 66 45 40 38 35 32 29 26 24 24 21
14 13 14 16 18 19 21 24 23 23 19 19 19 19 18 17 15 13 13 13 12 12 12 11 11 13 18 24 30 37 47 66 83 92 92 90 93 89 91 79 67 47 40 35 31 26 23 21 18
12 13 14 15 16 19 19 24 24 21 18 18 17 16 16 15 13 12 11 12 10 11 11 10 11 10 10 12 16 20 24 27 31 34 39 50 74 86 90 93 92 72 71 48 36 29 25 23 21
12 11 16 16 16 19 20 17 24 19 18 18 16 15 16 13 11 11 11 10 11 10 11 12 12 12 11 12 13 13 15 16 18 19 23 26 31 34 42 68 86 90 93 88 70 51 38 32 27
13 9 12 20 16 17 19 19 24 19 18 19 16 15 14 13 12 12 11 11 10 11 11 13 14 13 14 14 14 14 14 15 15 16 18 19 22 24 27 33 40 57 85 91 89 70 53 42 35
11 10 9 13 18 18 19 19 23 21 20 20 16 15 14 13 13 13 12 12 11 11 11 12 13 13 13 15 14 16 15 15 15 16 17 16 19 23 27 30 30 32 43 74 84 88 86 59 43
12 13 13 13 18 22 18 17 21 22 22 21 18 15 14 12 13 13 14 12 12 12 11 12 13 14 14 18 19 18 20 17 18 19 19 19 20 20 26 30 28 32 35 38 48 67 85 87 62
16 16 16 15 19 21 18 20 18 21 22 20 19 15 14 13 12 13 13 14 14 13 14 13 13 15 15 18 19 20 18 18 20 24 20 21 20 21 21 25 30 30 35 36 39 48 60 70 80
19 19 15 16 22 20 24 21 19 20 20 19 17 16 14 14 12 12 12 14 16 15 16 16 16 16 17 17 19 20 20 24 26 24 25 24 21 23 22 22 25 26 32 36 40 42 54 65 76
20 19 20 22 25 19 19 13 22 21 23 20 18 16 15 16 15 14 14 14 14 15 17 17 17 16 16 17 20 22 26 27 25 26 26 23 21 21 21 22 24 26 27 29 32 29 37 47 53
23 24 24 26 24 19 18 24 18 19 23 20 18 17 16 14 14 12 13 14 13 15 17 20 20 18 17 16 22 26 24 25 25 23 24 23 23 23 23 22 24 27 26 26 28 31 30 36 39
23 23 23 24 22 25 15 20 14 20 16 16 15 15 14 13 13 14 14 15 16 18 22 23 20 18 19 20 18 25 29 23 25 26 26 27 27 27 23 24 26 29 32 31 32 33 35 35 35
23 23 21 29 33 23 18 20 12 16 14 13 14 14 13 13 14 16 16 17 18 22 22 21 20 21 17 17 18 20 28 25 24 24 25 26 27 29 29 27 27 28 35 36 37 36 38 38 40
19 20 17 23 16 15 23 21 15 14 14 14 13 12 14 15 16 17 17 19 20 20 20 20 19 19 18 17 18 18 21 24 24 24 24 25 28 29 31 29 29 28 29 32 33 34 36 39 41
21 19 22 16 12 17 12 14 16 14 15 14 14 15 18 18 17 18 18 18 20 20 18 18 19 19 17 16 17 17 18 22 27 27 26 28 27 27 28 30 31 30 31 32 34 34 33 32 34
20 18 22 20 21 20 11 13 12 18 16 15 15 16 18 19 19 18 17 18 18 17 18 18 17 16 16 16 17 20 23 24 26 28 29 31 30 32 34 34 33 34 32 32 34 36 34 32 34
20 17 17 19 16 18 19 14 10 12 12 14 14 14 16 17 18 18 18 17 18 17 17 17 15 15 16 19 22 24 26 26 26 28 30 31 32 32 32 32 33 32 33 31 32 31 31 32 32
18 16 15 21 20 19 25 24 10 11 12 13 12 12 13 15 17 20 20 18 17 18 18 16 15 17 20 23 25 28 29 30 31 31 31 30 32 33 33 33 33 32 32 31 32 32 28 30 33

GFSSGP_sfc_rhum_048.txt.gz
RH
52 29 43 65 81 62 50 44 32 32 26 20 20 26 32 27 34 64 57 38 40 52 64 70 78 73 71 74 70 69 72 69 67 66 70 68 72 68 71 73 76 76 78 76 76 77 73 73 75
45 33 59 70 80 82 48 33 38 29 24 19 16 28 36 42 36 46 49 38 36 46 52 66 77 76 73 74 73 71 68 71 69 67 72 66 67 67 70 68 75 76 77 78 80 78 78 77 77
45 28 64 63 66 70 46 31 34 20 16 16 20 26 36 46 34 38 39 34 32 39 57 70 78 74 73 71 70 68 64 73 75 73 70 63 65 69 73 66 70 73 73 76 79 79 78 76 77
39 54 48 44 38 34 28 23 19 17 13 11 22 34 32 38 41 35 32 31 36 44 68 81 77 73 72 68 67 68 67 74 75 71 64 63 68 66 71 68 68 66 71 71 76 78 77 78 76
42 50 47 40 32 24 22 18 16 16 16 11 16 32 39 42 39 34 36 30 36 46 59 70 76 71 69 68 67 67 63 74 73 67 63 62 63 66 67 70 71 71 68 70 72 77 80 73 74
55 40 39 38 27 18 16 13 13 12 12 14 14 27 34 37 49 43 38 34 34 39 53 62 76 77 75 71 68 67 67 70 72 66 64 63 64 65 64 63 67 69 70 68 69 74 78 76 74
52 50 38 32 30 23 16 11 13 16 17 17 16 26 28 30 36 43 42 36 36 37 39 54 65 76 83 80 77 72 70 74 72 68 67 65 64 65 65 64 61 61 62 64 64 70 76 78 79
49 45 40 32 29 30 20 15 14 15 21 16 20 31 39 34 32 46 44 39 39 41 37 34 59 66 69 82 83 80 75 74 74 73 72 72 70 68 67 67 64 61 61 62 62 66 70 75 74
39 51 42 32 31 26 19 17 14 15 19 20 22 28 34 30 30 40 40 38 35 31 30 30 31 39 61 70 72 81 79 78 81 81 81 80 83 76 73 74 68 63 60 63 63 62 67 70 73
36 50 34 22 21 24 19 20 19 20 21 24 24 25 27 30 32 35 35 38 36 35 33 30 33 37 41 53 82 82 78 85 79 80 79 84 74 70 59 70 68 63 61 64 64 63 62 66 78
29 36 25 22 23 19 20 22 21 27 36 29 30 27 26 28 31 30 30 32 35 32 32 28 31 36 44 53 87 97 88 94 89 89 88 90 83 76 66 72 76 84 73 74 68 72 73 60 61
28 21 22 28 22 20 22 21 26 32 34 24 30 27 22 24 24 24 24 25 25 26 26 23 26 34 44 67 82 92 98 93 96 96 94 98 97 92 90 78 68 72 79 78 62 67 61 56 42
23 20 17 21 25 23 23 27 28 29 25 22 22 24 23 22 21 20 20 19 19 20 19 17 16 24 30 40 58 80 96 97 95 95 92 95 97 95 96 96 92 80 61 55 53 51 44 43 41
21 18 18 20 20 23 26 30 29 27 23 22 22 24 22 21 19 18 17 17 16 17 16 15 15 15 17 21 31 42 42 59 89 93 91 86 92 94 95 93 95 96 97 86 65 54 47 40 38
16 18 19 21 20 23 25 31 31 24 22 22 22 23 22 20 18 17 17 17 16 17 18 17 16 17 18 21 26 32 32 33 38 41 41 41 60 69 86 96 96 89 92 93 87 82 66 49 40
16 16 29 19 20 24 25 32 29 23 23 24 21 22 22 18 15 16 15 16 17 17 18 20 17 19 20 22 25 24 26 32 33 34 36 31 33 38 45 55 79 95 97 97 97 93 88 75 53
20 20 20 28 19 23 26 34 30 22 22 25 22 22 20 18 16 17 16 16 16 16 17 19 20 20 22 24 25 27 27 31 31 31 34 29 34 35 41 49 51 52 87 96 96 89 94 93 78
21 20 14 21 22 21 26 28 30 25 24 26 24 21 20 18 17 16 17 18 17 16 16 18 21 20 22 27 30 32 33 32 34 35 34 29 35 32 42 49 48 47 55 70 95 94 92 87 92
18 17 18 17 23 31 30 27 23 28 28 30 28 21 21 18 18 18 18 20 20 17 18 19 21 22 25 33 35 36 39 35 36 35 32 31 34 34 37 46 49 50 55 54 56 69 89 94 93
20 20 21 23 21 28 27 25 24 27 29 30 27 23 20 18 18 18 19 20 18 20 21 22 22 24 26 33 34 35 33 38 38 43 38 37 34 35 33 36 44 47 53 52 54 61 74 86 90
22 25 24 22 26 24 30 35 30 26 27 26 24 24 20 19 17 18 18 20 24 23 24 24 24 23 26 28 34 37 36 42 44 44 44 40 35 36 36 35 37 39 46 55 54 56 63 75 87
29 25 23 24 32 38 29 38 28 29 31 27 26 26 23 21 21 22 21 24 36 23 24 24 25 25 25 26 35 36 41 43 41 42 41 36 33 32 34 34 36 38 46 46 47 39 50 64 74
30 31 29 32 35 34 27 37 32 29 34 29 26 24 24 23 21 21 20 20 22 23 27 32 30 29 27 29 33 42 42 43 40 38 36 33 34 34 33 30 30 38 44 45 43 45 47 51 54
25 28 31 34 37 44 23 30 34 32 26 26 23 22 22 22 20 19 20 24 24 26 30 35 32 30 30 32 31 34 38 38 36 36 35 37 40 43 39 35 38 40 43 47 48 46 48 52 54
31 38 45 51 56 44 22 29 25 22 19 20 21 21 21 21 20 21 22 24 28 33 32 32 32 33 29 27 30 29 34 37 36 36 36 37 36 39 43 42 43 39 40 50 54 55 51 49 50
32 34 39 39 36 28 28 36 24 20 19 20 19 20 20 20 21 23 24 27 29 30 31 31 30 31 29 28 27 27 28 38 38 38 37 34 35 36 38 34 37 34 33 33 37 42 52 53 52
30 34 33 26 18 26 24 25 22 20 20 20 20 20 24 22 24 25 26 26 27 28 29 27 27 28 28 24 24 24 29 32 36 35 34 38 37 35 34 39 38 38 36 37 39 47 47 44 41
30 25 35 33 36 37 23 25 32 27 23 21 20 23 25 26 25 25 25 25 25 26 26 26 26 26 22 23 26 27 33 34 34 35 37 37 37 38 39 39 39 39 39 41 42 42 41 42 42
31 25 25 28 29 33 36 31 18 19 19 21 19 20 22 25 26 25 24 25 26 26 25 26 25 22 23 27 31 34 35 36 36 37 39 39 39 38 39 39 40 40 40 38 38 37 38 42 40
26 24 22 38 39 43 52 44 15 16 17 17 18 18 21 24 25 26 26 27 26 26 28 28 24 24 27 29 32 35 37 38 40 39 38 39 42 43 42 42 42 42 43 41 39 41 42 39 39